This demonstration page uses our WeatherBlox Daily Observations layout. Learn more.

38.89511, -77.03637

Hourly Observations for May 31, 2015

Temp ( °F °C ) Dew Point ( °F °C ) Humidity (%) Winds ( mph kmh ) Pressure ( in mb ) Visibility ( mi km ) Precip ( " mm )
12:52 am 00:52 Partly Cloudy 76 24.4 67 19.4 74 74 S 9 15 30.08 1019 10 16.0934 0 0
1:52 am 01:52 Partly Cloudy 75 23.9 68 20 79 79 S 9 15 30.06 1018 10 16.0934 0 0
2:52 am 02:52 Partly Cloudy 75 23.9 67 19.4 76 76 S 12 19 30.05 1018 10 16.0934 0 0
3:52 am 03:52 Partly Cloudy 75 23.9 66 18.9 74 74 S 10 17 30.04 1017 10 16.0934 0 0
4:52 am 04:52 Mostly Clear 74 23.3 66 18.9 76 76 S 12 19 30.05 1018 10 16.0934 0 0
5:52 am 05:52 Partly Cloudy 74 23.3 66 18.9 76 76 S 10 17 30.06 1018 10 16.0934 0 0
6:52 am 06:52 Partly Cloudy 75 23.9 66 18.9 74 74 S 10 17 30.06 1018 10 16.0934 0 0
7:52 am 07:52 Mostly Cloudy 76 24.4 67 19.4 74 74 S 8 13 30.06 1018 10 16.0934 0 0
8:52 am 08:52 Mostly Cloudy 78 25.6 68 20 71 71 S 13 20 30.07 1018 10 16.0934 0 0
9:52 am 09:52 Partly Cloudy 81 27.2 69 20.6 67 67 SSE 13 20 30.06 1018 10 16.0934 0 0
10:52 am 10:52 Partly Cloudy 83 28.3 69 20.6 63 63 SSE 12 19 30.06 1018 10 16.0934 0 0
11:52 am 11:52 Partly Cloudy 86 30 69 20.6 57 57 S 14 22 30.04 1017 10 16.0934 0 0
12:52 pm 12:52 Partly Cloudy 89 31.7 71 21.7 55 55 S 14 22 30.03 1017 10 16.0934 0 0
1:52 pm 13:52 Mostly Cloudy 89 31.7 68 20 50 50 SSW 12 19 30.01 1016 10 16.0934 0 0
2:52 pm 14:52 Mostly Cloudy 91 32.8 68 20 47 47 S 16 26 29.98 1015 10 16.0934 0 0
3:52 pm 15:52 Mostly Cloudy 90 32.2 67 19.4 47 47 SSW 14 22 29.98 1015 10 16.0934 0 0
4:52 pm 16:52 Cloudy 89 31.7 68 20 50 50 S 13 20 29.96 1015 10 16.0934 0 0
5:24 pm 17:24 Mostly Cloudy 90 32 70 21 52 52 S 18 30 29.97 1015 10 16.0934 0 0
5:52 pm 17:52 Mostly Cloudy 86 30 70 21.1 59 59 S 13 20 29.94 1014 10 16.0934 0 0
6:52 pm 18:52 Mostly Cloudy 87 30.6 68 20 53 53 S 14 22 29.95 1014 10 16.0934 0 0
7:52 pm 19:52 Mostly Cloudy 85 29.4 70 21.1 61 61 S 12 19 29.96 1015 10 16.0934 0 0
8:52 pm 20:52 Mostly Cloudy 84 28.9 69 20.6 61 61 S 10 17 29.98 1015 10 16.0934 0 0
9:52 pm 21:52 Mostly Cloudy 82 27.8 69 20.6 65 65 SSE 12 19 29.99 1016 10 16.0934 0 0
10:52 pm 22:52 Cloudy 80 26.7 69 20.6 69 69 S 13 20 30 1016 10 16.0934 0 0
11:52 pm 23:52 Cloudy 79 26.1 68 20 69 69 S 12 19 30.01 1016 10 16.0934 0 0

Powered by AerisWeather